Abakan, Russia

12:29 AM +07 on November 23, 2019 (GMT +0700)
Abakan

Weather History for UNAA - September, 2019

Change the Weather History Date:

Friday, September 20, 2019

  Actual Average Record
Temperature  
Mean Temperature 60 °F -  
Max Temperature 78 °F - - ()
Min Temperature 42 °F - - ()
Degree Days  
Heating Degree Days 5    
Growing Degree Days 10 (Base 50)    
Moisture  
Dew Point 49 °F    
Average Humidity 71    
Maximum Humidity 100    
Minimum Humidity 36    
Precipitation  
Precipitation 0.00 in - - ()
Sea Level Pressure  
Sea Level Pressure 29.95 in    
Wind  
Wind Speed 3 mph ()    
Max Wind Speed 11 mph    
Max Gust Speed -    
Visibility 1.6 miles    
Events Fog    
T = Trace of Precipitation, MM = Missing Value Source: Averaged Metar Reports

Daily Weather History Graph

Daily Weather History Graph

Search for Another Location

Airport or City:

Astronomy

Sep. 20, 2019 Rise Set
Actual Time 6:35 AM +07 6:59 PM +07
Civil Twilight 6:00 AM +07 7:34 PM +07
Nautical Twilight 5:18 AM +07 8:16 PM +07
Astronomical Twilight 4:33 AM +07 9:00 PM +07
Moon 9:39 PM +07 (9/20) 12:56 PM +07 (9/20)
Length of Visible Light 13h 34m
Length of Day
12h 24m
Waning Gibbous, 69% of the Moon is Illuminated
Sep 20
Waning Gibbous
Sep 22
Last Quarter
Sep 29
New
Oct 5
First Quarter
Oct 14
Full

Hourly Weather History & Observations

Time (+07) Temp. Windchill Dew Point Humidity Pressure Visibility Wind Dir Wind Speed Gust Speed Precip Events Conditions
12:00 AM 50.0 °F - 48.2 °F 94% 30.06 in - Calm Calm - N/A   Mist
1:00 AM 51.8 °F - 50.0 °F 94% 30.04 in 3.7 mi NNW 2.2 mph - N/A   Unknown
1:30 AM 48.2 °F - 48.2 °F 100% 30.04 in 1.6 mi Calm Calm - N/A   Mist
2:00 AM 48.2 °F - 46.4 °F 93% 30.04 in 0.1 mi Calm Calm - N/A Fog Fog
2:30 AM 48.2 °F - 48.2 °F 100% 30.04 in 0.5 mi NNW 2.2 mph - N/A Fog Fog
3:00 AM 48.2 °F - 46.4 °F 93% 30.04 in 1.7 mi NNW 4.5 mph - N/A   Mist
3:30 AM 48.2 °F - 48.2 °F 100% 30.04 in 0.7 mi NNW 2.2 mph - N/A   Unknown
4:00 AM 44.6 °F - 44.6 °F 100% 30.01 in 0.1 mi NNW 2.2 mph - N/A Fog Fog
4:30 AM 42.8 °F - 42.8 °F 100% 30.04 in 0.1 mi Calm Calm - N/A Fog Fog
5:00 AM 42.8 °F - 42.8 °F 100% 30.01 in 1.5 mi Calm Calm - N/A   Unknown
6:00 AM 42.8 °F - 42.8 °F 100% 30.01 in 0.5 mi NNW 2.2 mph - N/A   Unknown
6:30 AM 46.4 °F 44.4 °F 44.6 °F 93% 30.01 in 3.7 mi East 4.5 mph - N/A   Unknown
7:30 AM 44.6 °F - 42.8 °F 93% 30.01 in - SSE 2.2 mph - N/A   Mist
8:00 AM 48.2 °F - 48.2 °F 100% 30.01 in - Calm Calm - N/A   Clear
8:30 AM 50.0 °F - 50.0 °F 100% 30.01 in - Variable 2.2 mph - N/A   Clear
9:00 AM 53.6 °F - 50.0 °F 88% 30.01 in - SE 2.2 mph - N/A   Clear
9:30 AM 55.4 °F - 50.0 °F 82% 30.01 in - SE 4.5 mph - N/A   Clear
10:00 AM 57.2 °F - 50.0 °F 77% 29.98 in - SSW 4.5 mph - N/A   Clear
10:30 AM 59.0 °F - 50.0 °F 72% 29.98 in - Variable 2.2 mph - N/A   Clear
11:00 AM 60.8 °F - 51.8 °F 72% 29.98 in - SSE 4.5 mph - N/A   Clear
11:30 AM 62.6 °F - 51.8 °F 68% 29.95 in - SSE 4.5 mph - N/A   Clear
12:00 PM 64.4 °F - 53.6 °F 68% 29.95 in - South 4.5 mph - N/A   Clear
12:30 PM 68.0 °F - 55.4 °F 64% 29.95 in - South 6.7 mph - N/A   Clear
1:00 PM 69.8 °F - 55.4 °F 60% 29.92 in - SSE 6.7 mph - N/A   Clear
1:30 PM 69.8 °F - 57.2 °F 64% 29.89 in - SE 6.7 mph - N/A   Clear
2:00 PM 73.4 °F - 57.2 °F 57% 29.89 in - SSE 6.7 mph - N/A   Clear
2:30 PM 75.2 °F - 55.4 °F 50% 29.89 in - SSE 4.5 mph - N/A   Clear
3:00 PM 77.0 °F - 51.8 °F 41% 29.86 in - SSW 6.7 mph - N/A   Clear
3:30 PM 77.0 °F - 53.6 °F 44% 29.86 in - South 8.9 mph - N/A   Clear
4:00 PM 78.8 °F - 51.8 °F 39% 29.86 in - South 11.2 mph - N/A   Clear
4:30 PM 78.8 °F - 51.8 °F 39% 29.86 in - SSW 8.9 mph - N/A   Clear
5:00 PM 78.8 °F - 50.0 °F 36% 29.86 in - SW 8.9 mph - N/A   Clear
5:30 PM 78.8 °F - 50.0 °F 36% 29.86 in - SSW 11.2 mph - N/A   Clear
6:00 PM 77.0 °F - 50.0 °F 39% 29.86 in - SSW 8.9 mph - N/A   Clear
6:30 PM 71.6 °F - 50.0 °F 46% 29.86 in - SSW 6.7 mph - N/A   Clear
7:00 PM 69.8 °F - 46.4 °F 43% 29.86 in - SSW 8.9 mph - N/A   Clear
7:30 PM 69.8 °F - 46.4 °F 43% 29.86 in - SSW 6.7 mph - N/A   Clear
8:00 PM 69.8 °F - 44.6 °F 40% 29.89 in - SW 6.7 mph - N/A   Clear
8:30 PM 66.2 °F - 46.4 °F 49% 29.89 in - SSW 6.7 mph - N/A   Clear
9:30 PM 62.6 °F - 48.2 °F 59% 29.89 in - SSE 6.7 mph - N/A   Clear
10:00 PM 60.8 °F - 48.2 °F 63% 29.89 in - Variable 2.2 mph - N/A   Clear
10:30 PM 59.0 °F - 48.2 °F 67% 29.89 in - Variable 2.2 mph - N/A   Clear
11:00 PM 57.2 °F - 46.4 °F 67% 29.92 in 5.6 mi Variable 2.2 mph - N/A   Smoke
11:30 PM 53.6 °F - 46.4 °F 77% 29.92 in - Calm Calm - N/A   Clear